Tracking 20083 objects as of 8-Dec-2019
HD Live streaming from Space Station
objects crossing your sky now

FENGYUN 1C DEB

Track FENGYUN 1C DEB now!
10-day predictions


NORAD ID: 30404
Int'l Code: 1999-025ADT
Perigee: 857.3 km
Apogee: 1,444.3 km
Inclination: 99.7 °
Period: 108.2 minutes
Semi major axis: 7521 km
RCS: 0.0064 m2 (small)
Launch date: May 10, 1999
Source: People's Republic of China (PRC)
Launch site: Taiyaun Space Center, China (TSC)

Note: This is SATELLITE DEBRIS
aabbcc
Your satellite tracking list
Your tracking list is empty




NASA's NSSDC Master Catalog

Two Line Element Set (TLE):
1 30404U 99025ADT 19341.39514269  .00000505  00000-0  75751-3 0  9991
2 30404  99.6955 140.9937 0390154  20.8719   8.6722 13.30820987625030
Source of the keplerian elements: AFSPC